North Bend, OR

6:20 AM PDT on June 29, 2017 (GMT -0700)
North Bend Municipal

Weather History for KOTH - November, 2012

Change the Weather History Date:

Wednesday, November 7, 2012

  Actual Average Record
Temperature  
Mean Temperature 50 °F 50 °F  
Max Temperature 57 °F 57 °F 77 °F (1923)
Min Temperature 43 °F 44 °F 29 °F (1920)
Degree Days  
Heating Degree Days 15 15  
Month to date heating degree days 60 100  
Since 1 July heating degree days 959 1066  
Cooling Degree Days 0 0  
Month to date cooling degree days 0 0  
Year to date cooling degree days 1 2  
Moisture  
Dew Point 47 °F    
Average Humidity 91    
Maximum Humidity 100    
Minimum Humidity 57    
Precipitation  
Precipitation 0.00 in 0.31 in 2.64 in (2006)
Month to date precipitation 0.30 1.98  
Year to date precipitation 35.19 45.53  
Sea Level Pressure  
Sea Level Pressure 30.14 in    
Wind  
Wind Speed 5 mph (ESE)    
Max Wind Speed 10 mph    
Max Gust Speed -    
Visibility 8 miles    
Events      
T = Trace of Precipitation, MM = Missing Value Source: NWS Daily Summary

Daily Weather History Graph

Daily Weather History Graph

Search for Another Location

Airport or City:

Trip Planner

Search our weather history database for the weather conditions in past years. The results will help you decide how hot, cold, wet, or windy it might be!

Date:

Astronomy

Nov. 07, 2012 Rise Set
Actual Time 7:00 AM PST 4:59 PM PST
Civil Twilight 6:30 AM PST 5:30 PM PST
Nautical Twilight 5:56 AM PST 6:04 PM PST
Astronomical Twilight 5:23 AM PST 6:37 PM PST
Moon No Moon Rise 1:22 PM PST (11/7)
Length of Visible Light 10h 59m
Length of Day
9h 59m
Last Quarter, 42% of the Moon is Illuminated
Nov 7
Last Quarter
Nov 13
New
Nov 20
First Quarter
Nov 28
Full
Dec 6
Last Quarter

Hourly Weather History & Observations

Time (PST) Temp. Windchill Dew Point Humidity Pressure Visibility Wind Dir Wind Speed Gust Speed Precip Events Conditions
12:15 AM 53.6 °F - 53.6 °F 100% 30.19 in 10.0 mi NNW 3.5 mph - N/A   Unknown
12:55 AM 53.6 °F - 53.6 °F 100% 30.19 in 10.0 mi NNE 4.6 mph - N/A   Unknown
1:15 AM 53.6 °F - 51.8 °F 94% 30.19 in 10.0 mi North 3.5 mph - N/A   Unknown
1:35 AM 51.8 °F - 51.8 °F 100% 30.19 in 10.0 mi Calm Calm - N/A   Unknown
1:55 AM 51.8 °F - 51.8 °F 100% 30.20 in 10.0 mi Calm Calm - N/A   Unknown
2:15 AM 50.0 °F - 48.2 °F 94% 30.20 in 10.0 mi Calm Calm - N/A   Unknown
2:35 AM 51.8 °F - 51.8 °F 100% 30.20 in 8.0 mi Calm Calm - N/A   Unknown
2:55 AM 48.2 °F - 48.2 °F 100% 30.21 in 1.2 mi Calm Calm - N/A   Unknown
3:15 AM 48.2 °F - 48.2 °F 100% 30.21 in 1.8 mi Calm Calm - N/A   Unknown
3:35 AM 48.2 °F - 46.4 °F 93% 30.21 in 0.8 mi Calm Calm - N/A   Unknown
3:55 AM 46.4 °F 44.3 °F 46.4 °F 100% 30.21 in 2.5 mi SSE 4.6 mph - N/A   Unknown
4:15 AM 46.4 °F 45.2 °F 46.4 °F 100% 30.21 in 3.0 mi SE 3.5 mph - N/A   Unknown
4:35 AM 48.2 °F - 48.2 °F 100% 30.21 in 1.2 mi SSE 4.6 mph - N/A   Unknown
4:55 AM 48.2 °F - 48.2 °F 100% 30.21 in 10.0 mi SE 5.8 mph - N/A   Unknown
5:15 AM 48.2 °F - 48.2 °F 100% 30.21 in 10.0 mi SE 5.8 mph - N/A   Unknown
5:35 AM 48.2 °F - 48.2 °F 100% 30.22 in 10.0 mi SSE 4.6 mph - N/A   Unknown
5:55 AM 46.4 °F 43.5 °F 46.4 °F 100% 30.22 in 10.0 mi SE 5.8 mph - N/A   Unknown
6:15 AM 46.4 °F - 46.4 °F 100% 30.22 in 10.0 mi Calm Calm - N/A   Unknown
6:35 AM 46.4 °F 43.5 °F 46.4 °F 100% 30.22 in 7.0 mi SE 5.8 mph - N/A   Unknown
6:55 AM 46.4 °F 44.3 °F 46.4 °F 100% 30.21 in 0.2 mi SE 4.6 mph - N/A   Unknown
7:15 AM 46.4 °F 43.5 °F 46.4 °F 100% 30.22 in 0.2 mi SSE 5.8 mph - N/A   Unknown
7:35 AM 46.4 °F 45.2 °F 46.4 °F 100% 30.22 in 0.2 mi SSE 3.5 mph - N/A   Unknown
7:55 AM 46.4 °F 45.2 °F 46.4 °F 100% 30.22 in 0.2 mi ESE 3.5 mph - N/A   Unknown
8:15 AM 48.2 °F - 48.2 °F 100% 30.22 in 0.2 mi SE 3.5 mph - N/A   Unknown
8:35 AM 48.2 °F - 46.4 °F 93% 30.22 in 0.2 mi SE 5.8 mph - N/A   Unknown
8:55 AM 48.2 °F - 48.2 °F 100% 30.21 in 0.2 mi Calm Calm - N/A   Unknown
9:15 AM 48.2 °F - 48.2 °F 100% 30.21 in 0.5 mi SSE 3.5 mph - N/A   Unknown
9:35 AM 48.2 °F - 48.2 °F 100% 30.21 in 0.8 mi SSE 3.5 mph - N/A   Unknown
9:55 AM 50.0 °F - 50.0 °F 100% 30.20 in 9.0 mi ESE 4.6 mph - N/A   Unknown
10:15 AM 51.8 °F - 51.8 °F 100% 30.20 in 10.0 mi SE 4.6 mph - N/A   Unknown
10:35 AM 51.8 °F - 51.8 °F 100% 30.20 in 10.0 mi Calm Calm - N/A   Unknown
10:55 AM 53.6 °F - 51.8 °F 94% 30.20 in 10.0 mi Calm Calm - N/A   Unknown
11:15 AM 53.6 °F - 51.8 °F 94% 30.19 in 10.0 mi Calm Calm - N/A   Unknown
11:35 AM 55.4 °F - 50.0 °F 82% 30.18 in 10.0 mi NNW 3.5 mph - N/A   Unknown
11:55 AM 55.4 °F - 48.2 °F 77% 30.18 in 10.0 mi North 5.8 mph - N/A   Scattered Clouds
12:15 PM 55.4 °F - 50.0 °F 82% 30.17 in 10.0 mi NNW 8.1 mph - N/A   Scattered Clouds
12:35 PM 57.2 °F - 50.0 °F 77% 30.16 in 10.0 mi WNW 8.1 mph - N/A   Scattered Clouds
12:55 PM 57.2 °F - 48.2 °F 72% 30.16 in 10.0 mi NW 9.2 mph - N/A   Scattered Clouds
1:15 PM 57.2 °F - 46.4 °F 67% 30.15 in 10.0 mi NNW 9.2 mph - N/A   Unknown
1:35 PM 57.2 °F - 44.6 °F 63% 30.15 in 10.0 mi NNW 9.2 mph - N/A   Scattered Clouds
1:55 PM 57.2 °F - 42.8 °F 59% 30.14 in 10.0 mi NNW 10.4 mph - N/A   Scattered Clouds
2:15 PM 57.2 °F - 44.6 °F 63% 30.14 in 10.0 mi NNW 9.2 mph - N/A   Scattered Clouds
2:35 PM 57.2 °F - 42.8 °F 59% 30.13 in 10.0 mi NNW 9.2 mph - N/A   Scattered Clouds
2:55 PM 57.2 °F - 44.6 °F 63% 30.13 in 10.0 mi NNW 10.4 mph - N/A   Scattered Clouds
3:15 PM 55.4 °F - 44.6 °F 67% 30.12 in 10.0 mi North 11.5 mph - N/A   Unknown
3:35 PM 55.4 °F - 46.4 °F 72% 30.12 in 10.0 mi North 13.8 mph - N/A   Unknown
3:55 PM 53.6 °F - 46.4 °F 77% 30.12 in 10.0 mi North 10.4 mph - N/A   Unknown
4:15 PM 53.6 °F - 46.4 °F 77% 30.11 in 9.0 mi NNW 10.4 mph - N/A   Unknown
4:35 PM 53.6 °F - 48.2 °F 82% 30.11 in 10.0 mi NNW 6.9 mph - N/A   Unknown
4:55 PM 51.8 °F - 46.4 °F 82% 30.10 in 10.0 mi NNW 5.8 mph - N/A   Unknown
5:15 PM 51.8 °F - 46.4 °F 82% 30.09 in 10.0 mi NNW 4.6 mph - N/A   Unknown
5:35 PM 51.8 °F - 46.4 °F 82% 30.09 in 10.0 mi North 3.5 mph - N/A   Unknown
5:55 PM 50.0 °F - 46.4 °F 87% 30.08 in 10.0 mi NNE 3.5 mph - N/A   Unknown
6:15 PM 50.0 °F - 46.4 °F 87% 30.08 in 10.0 mi Calm Calm - N/A   Partly Cloudy
6:35 PM 48.2 °F - 46.4 °F 93% 30.08 in 10.0 mi NE 3.5 mph - N/A   Partly Cloudy
6:55 PM 48.2 °F - 46.4 °F 93% 30.07 in 10.0 mi Calm Calm - N/A   Partly Cloudy
7:15 PM 46.4 °F 45.2 °F 46.4 °F 100% 30.06 in 10.0 mi SSE 3.5 mph - N/A   Partly Cloudy
7:35 PM 46.4 °F - 46.4 °F 100% 30.06 in 8.0 mi Calm Calm - N/A   Partly Cloudy
7:55 PM 46.4 °F - 44.6 °F 93% 30.05 in 10.0 mi Calm Calm - N/A   Partly Cloudy
8:15 PM 44.6 °F 43.1 °F 42.8 °F 93% 30.04 in 10.0 mi SE 3.5 mph - N/A   Partly Cloudy
8:35 PM 44.6 °F 42.2 °F 44.6 °F 100% 30.03 in 9.0 mi SSE 4.6 mph - N/A   Partly Cloudy
8:55 PM 44.6 °F 42.2 °F 44.6 °F 100% 30.03 in 8.0 mi SSE 4.6 mph - N/A   Partly Cloudy
9:15 PM 44.6 °F 41.4 °F 42.8 °F 93% 30.02 in 9.0 mi SE 5.8 mph - N/A   Unknown
9:35 PM 44.6 °F 43.1 °F 42.8 °F 93% 30.01 in 10.0 mi SE 3.5 mph - N/A   Unknown
9:55 PM 42.8 °F 38.6 °F 42.8 °F 100% 30.01 in 10.0 mi SE 6.9 mph - N/A   Unknown
10:15 PM 44.6 °F 41.4 °F 44.6 °F 100% 30.00 in 10.0 mi SSE 5.8 mph - N/A   Unknown
10:35 PM 44.6 °F 40.7 °F 42.8 °F 93% 29.99 in 10.0 mi SSE 6.9 mph - N/A   Unknown
10:55 PM 44.6 °F 41.4 °F 44.6 °F 100% 29.98 in 10.0 mi SSE 5.8 mph - N/A   Unknown
11:15 PM 42.8 °F 40.1 °F 42.8 °F 100% 29.97 in 10.0 mi SSE 4.6 mph - N/A   Unknown
11:35 PM 42.8 °F 40.1 °F 42.8 °F 100% 29.96 in 10.0 mi SSE 4.6 mph - N/A   Unknown
11:55 PM 42.8 °F 37.5 °F 42.8 °F 100% 29.95 in 10.0 mi SE 9.2 mph - N/A   Unknown